Location: Unspecified
(48.8656°N, 0.0000°E)
Time: 12:31:00
(UTC+00:00)

Transit 2A Rocket - Pass Details

Date: 25 June 2019
Orbit: 588 x 915 km, 66.7° (Epoch: 21 July)

Event Time Altitude Azimuth Distance (km) Brightness Sun altitude
Rises 15:18:25 0° 321° (NW) 3,417 8.6 44.1°
Reaches altitude 10° 15:21:57 10° 342° (NNW) 2,416 7.7 43.5°
Maximum altitude 15:25:23 16° 21° (NNE) 1,935 7.0 43.0°
Drops below altitude 10° 15:28:39 10° 60° (ENE) 2,273 7.1 42.4°
Sets 15:31:50 0° 81° (E) 3,122 7.7 41.9°
